Rifle, CO

11:19 AM MDT on May 24, 2017 (GMT -0600)
Garfield County Regional

Weather History for KRIL - March, 2013

Change the Weather History Date:

Saturday, March 2, 2013

  Actual Average Record
Temperature  
Mean Temperature 36 °F 36 °F  
Max Temperature 52 °F 48 °F 69 °F (1986)
Min Temperature 20 °F 23 °F -2 °F (1939)
Degree Days  
Heating Degree Days 29 29  
Month to date heating degree days 61 59  
Since 1 July heating degree days 5115 5056  
Cooling Degree Days 0 0  
Month to date cooling degree days 0 0  
Year to date cooling degree days 0 0  
Moisture  
Dew Point 23 °F    
Average Humidity 61    
Maximum Humidity 88    
Minimum Humidity 33    
Precipitation  
Precipitation 0.00 in 0.03 in 0.86 in (1976)
Month to date precipitation T 0.06  
Year to date precipitation 0.77 1.63  
Sea Level Pressure  
Sea Level Pressure 30.44 in    
Wind  
Wind Speed 3 mph (South)    
Max Wind Speed 10 mph    
Max Gust Speed 15 mph    
Visibility 10 miles    
Events      
T = Trace of Precipitation, MM = Missing Value Source: NWS Daily Summary

Daily Weather History Graph

Daily Weather History Graph

Search for Another Location

Airport or City:

Trip Planner

Search our weather history database for the weather conditions in past years. The results will help you decide how hot, cold, wet, or windy it might be!

Date:

Astronomy

Mar. 02, 2013 Rise Set
Actual Time 6:41 AM MST 6:04 PM MST
Civil Twilight 6:14 AM MST 6:31 PM MST
Nautical Twilight 5:43 AM MST 7:02 PM MST
Astronomical Twilight 5:12 AM MST 7:33 PM MST
Moon 11:45 PM MST (3/2) 9:13 AM MST (3/2)
Length of Visible Light 12h 16m
Length of Day
11h 22m
Waning Gibbous, 73% of the Moon is Illuminated
Mar 2
Waning Gibbous
Mar 4
Last Quarter
Mar 11
New
Mar 19
First Quarter
Mar 27
Full

Hourly Weather History & Observations

Time (MST) Temp. Windchill Dew Point Humidity Pressure Visibility Wind Dir Wind Speed Gust Speed Precip Events Conditions
12:53 AM 25.0 °F - 19.9 °F 81% 30.57 in 10.0 mi Calm Calm - N/A   Clear
1:53 AM 24.1 °F - 19.9 °F 84% 30.57 in 10.0 mi Calm Calm - N/A   Clear
2:53 AM 24.1 °F 13.7 °F 19.9 °F 84% 30.56 in 10.0 mi SSW 10.4 mph - N/A   Clear
3:53 AM 23.0 °F 15.8 °F 18.0 °F 81% 30.56 in 10.0 mi SSE 5.8 mph - N/A   Clear
4:53 AM 21.9 °F 17.2 °F 18.0 °F 85% 30.56 in 10.0 mi Variable 3.5 mph - N/A   Clear
5:53 AM 21.0 °F - 17.1 °F 85% 30.58 in 10.0 mi Calm Calm - N/A   Clear
6:53 AM 21.9 °F 14.5 °F 18.0 °F 85% 30.60 in 10.0 mi Variable 5.8 mph - N/A   Clear
7:53 AM 23.0 °F 15.8 °F 19.9 °F 88% 30.61 in 10.0 mi SSE 5.8 mph - N/A   Clear
8:53 AM 28.9 °F - 21.9 °F 75% 30.60 in 10.0 mi Calm Calm - N/A   Clear
9:53 AM 33.1 °F 30.0 °F 23.0 °F 66% 30.57 in 10.0 mi WSW 3.5 mph - N/A   Clear
10:53 AM 37.0 °F - 25.0 °F 62% 30.53 in 10.0 mi Calm Calm - N/A   Clear
11:53 AM 41.0 °F 39.0 °F 25.0 °F 53% 30.49 in 10.0 mi Variable 3.5 mph - N/A   Clear
12:53 PM 48.0 °F - 24.1 °F 39% 30.42 in 10.0 mi Variable 3.5 mph - N/A   Clear
1:53 PM 48.0 °F - 24.1 °F 39% 30.38 in 10.0 mi West 3.5 mph - N/A   Clear
2:53 PM 50.0 °F - 23.0 °F 35% 30.34 in 10.0 mi Variable 3.5 mph - N/A   Clear
3:53 PM 51.1 °F - 24.1 °F 35% 30.32 in 10.0 mi Calm Calm - N/A   Clear
4:53 PM 50.0 °F - 27.0 °F 41% 30.30 in 10.0 mi Variable 5.8 mph - N/A   Clear
5:53 PM 45.0 °F 42.6 °F 28.0 °F 52% 30.32 in 10.0 mi Variable 4.6 mph - N/A   Clear
6:53 PM 37.0 °F - 28.0 °F 70% 30.33 in 10.0 mi Calm Calm - N/A   Clear
7:53 PM 36.0 °F 33.3 °F 27.0 °F 70% 30.32 in 10.0 mi South 3.5 mph - N/A   Clear
8:53 PM 33.1 °F 28.7 °F 26.1 °F 75% 30.31 in 10.0 mi SE 4.6 mph - N/A   Clear
9:53 PM 32.0 °F - 26.1 °F 79% 30.28 in 10.0 mi Calm Calm - N/A   Clear
10:53 PM 32.0 °F - 26.1 °F 79% 30.23 in 10.0 mi Calm Calm - N/A   Clear
11:53 PM 32.0 °F - 26.1 °F 79% 30.20 in 10.0 mi Calm Calm - N/A   Clear